FENGYUN 1C DEB

Satellite information

Favourite Embed

Satellite Type and Status

DEBRISIN ORBIT

Key statistics

Satellite FENGYUN 1C DEB at a glance.

Uptime

9555

Days in orbit

Revolutions

≈ 13.7

Per day

Orbit

SSO

Sun Synchronous Orbit

Inclination

98.5

Latest

Satellite identification and parameters

Extended collection of information and parameters for FENGYUN 1C DEB.

Object identification

Identified? True

Debris? True

Object name: FENGYUN 1C DEB

International designator: 1999-025DZK

Object number (NORAD): 36689

Object ID (CCSDS): 36689

Country: PEOPLES REPUBLIC OF CHINA (PRC)

Current information (Y/N): Y

RCS size: SMALL

Orbital parameters

Period: 104.853 minutes

Inclination: 98.4851 deg

SMA: 7365.703 km

Apoapsis: 1221.323 km

Periapsis: 753.813 km

RAAN: 99.1616 deg

Eccentricy: 0.0317356

Argument of periapsis: 4.0747 deg

Mean anomaly: 356.2879 deg

Mean motion: 13.73350698 rev/day

Mean motion (dot): 0.00002179 rev/day2

B* drag term: 0.0016607 1/REarth

Two-line elements (TLE)

Creation date: July 6, 2025, 10:36 p.m.

Reference frame: TEME

Reference center: EARTH

Epoch: July 6, 2025, 4:38 p.m. UTC

TLE line 0: 0 FENGYUN 1C DEB

TLE line 1: 1 36689U 99025DZK 25187.69331846 .00002179 00000-0 16607-2 0 9991

TLE line 2: 2 36689 98.4851 99.1616 0317356 4.0747 356.2879 13.73350698859498

Live tracking on map

Real-time ground track for satellite FENGYUN 1C DEB.

In-orbit conjunctions

A list of the most updated potential collisions computed for object FENGYUN 1C DEB.

Target Orbit TCA Probability of collision Miss distance Type
COSMOS 2056 LEO 2025-04-20 06:49:56 0.0005688986 122.0 (m) PAYLOAD

Associated space launch

Chinese polar orbiting meteorological satellite

FENGYUN 1C DEB was lifted into orbit during the mission ‘Long March 4B | Feng Yun 1C’, on board a Long March 4B space rocket.

The launch took place on May 10, 1999, 1:33 a.m. from Launch Complex 7.

For more information about the launch, click the button.

Launch to space Long March 4B | Feng Yun 1C
Long March 4B | Feng Yun 1C

Agency: N/A

Status: Launch Successful

Launch date: May 10, 1999, 1:33 a.m. UTC

Rocket: Long March 4B

Launch pad: Launch Complex 7

Location: Taiyuan Satellite Launch Center, People's Republic of China

...

Latest news about this satellite

There are no fresh news available about this satellite. Check back as we update our databases every day.


Newsletter sign-up

Weekly statistics, charts and insights to help you stay on top of the space industry.